Radiation Dose measured at exhaust stack monitor of Fukushima Daiichi Nuclear Power Station
Date,Time,Unit 5 6 shared exhaust cylinders,Wind Direction,Wind Velocity(m/s)
2023/08/15,00:00,3.6,south-southeast,5.0
2023/08/15,00:10,3.6,south-southeast,4.8
2023/08/15,00:20,3.7,south-southeast,4.9
2023/08/15,00:30,3.5,south,4.0
2023/08/15,00:40,3.7,south-southeast,8.2
2023/08/15,00:50,3.6,south-southeast,6.8
2023/08/15,01:00,3.6,south-southeast,7.0
2023/08/15,01:10,3.9,south,6.2
2023/08/15,01:20,3.5,south,5.6
2023/08/15,01:30,3.6,south-southeast,6.2
2023/08/15,01:40,3.6,south,5.2
2023/08/15,01:50,3.6,south,4.2
2023/08/15,02:00,3.7,south,4.5
2023/08/15,02:10,3.7,south-southeast,4.0
2023/08/15,02:20,3.6,south-southeast,3.8
2023/08/15,02:30,3.8,south-southeast,3.3
2023/08/15,02:40,3.4,southeast,2.8
2023/08/15,02:50,3.7,south-southeast,2.2
2023/08/15,03:00,3.7,south-southeast,2.3
2023/08/15,03:10,3.6,south-southeast,1.7
2023/08/15,03:20,3.7,southeast,2.3
2023/08/15,03:30,3.6,south-southeast,1.7
2023/08/15,03:40,3.7,south,0.9
2023/08/15,03:50,3.7,south,1.1
2023/08/15,04:00,3.8,west-southwest,0.6
2023/08/15,04:10,3.7,-,CALM
2023/08/15,04:20,3.4,-,CALM
2023/08/15,04:30,3.4,west,0.6
2023/08/15,04:40,3.6,-,CALM
2023/08/15,04:50,3.7,southwest,0.6
2023/08/15,05:00,3.6,southwest,1.2
2023/08/15,05:10,3.8,south-southwest,1.5
2023/08/15,05:20,3.6,south,2.0
2023/08/15,05:30,3.7,south,2.3
2023/08/15,05:40,3.7,south,2.6
2023/08/15,05:50,3.5,south-southwest,1.7
2023/08/15,06:00,3.6,south,2.2
2023/08/15,06:10,3.6,south-southeast,2.0
2023/08/15,06:20,3.5,south-southeast,1.4
2023/08/15,06:30,3.6,south-southwest,0.9
2023/08/15,06:40,3.5,south-southeast,2.6
2023/08/15,06:50,3.6,south-southeast,2.6
2023/08/15,07:00,3.6,south-southeast,3.5
2023/08/15,07:10,3.6,south-southeast,4.5
2023/08/15,07:20,3.7,southeast,3.9
2023/08/15,07:30,3.7,south-southeast,3.5
2023/08/15,07:40,3.7,southeast,2.9
2023/08/15,07:50,3.4,southeast,3.6
2023/08/15,08:00,3.6,southeast,3.4
2023/08/15,08:10,3.5,southeast,3.5
2023/08/15,08:20,3.7,southeast,3.8
2023/08/15,08:30,3.5,southeast,3.5
2023/08/15,08:40,3.5,southeast,5.4
2023/08/15,08:50,3.8,south-southeast,6.4
2023/08/15,09:00,3.7,south-southeast,5.7
2023/08/15,09:10,3.6,south-southeast,7.0
2023/08/15,09:20,3.6,south-southeast,7.4
2023/08/15,09:30,3.6,south-southeast,7.1
2023/08/15,09:40,3.6,southeast,6.3
2023/08/15,09:50,3.6,southeast,6.1
2023/08/15,10:00,3.5,southeast,7.8
2023/08/15,10:10,3.7,southeast,7.1
2023/08/15,10:20,3.7,south-southeast,7.2
2023/08/15,10:30,3.5,southeast,7.2
2023/08/15,10:40,3.5,south-southeast,8.6
2023/08/15,10:50,3.8,south-southeast,9.2
2023/08/15,11:00,3.9,south-southeast,9.1
2023/08/15,11:10,3.8,south-southeast,9.7
2023/08/15,11:20,3.6,south-southeast,9.2
2023/08/15,11:30,3.7,south-southeast,9.5
2023/08/15,11:40,3.6,south-southeast,9.0
2023/08/15,11:50,3.6,south,7.2
2023/08/15,12:00,3.7,south-southeast,8.5
2023/08/15,12:10,3.7,south-southeast,7.6
2023/08/15,12:20,3.6,south-southeast,9.8
2023/08/15,12:30,3.7,south,7.2
2023/08/15,12:40,3.7,south-southeast,9.3
2023/08/15,12:50,3.6,south-southeast,10.9
2023/08/15,13:00,3.6,south-southeast,12.2
2023/08/15,13:10,3.6,south-southeast,10.6
2023/08/15,13:20,3.6,south-southeast,10.5
2023/08/15,13:30,3.5,south-southeast,8.0
2023/08/15,13:40,3.6,south-southeast,6.2
2023/08/15,13:50,3.8,south,6.3
2023/08/15,14:00,3.7,south-southeast,5.3
2023/08/15,14:10,3.7,south-southeast,7.4
2023/08/15,14:20,3.8,south-southeast,7.8
2023/08/15,14:30,3.5,south-southeast,9.8
2023/08/15,14:40,3.6,south-southeast,9.2
2023/08/15,14:50,3.6,south,7.3
2023/08/15,15:00,3.6,south,6.4
2023/08/15,15:10,3.6,south,6.6
2023/08/15,15:20,3.6,south,4.9
2023/08/15,15:30,3.7,south,4.6
2023/08/15,15:40,3.8,south,4.1
2023/08/15,15:50,3.7,south,4.8
2023/08/15,16:00,3.6,south,5.2
2023/08/15,16:10,3.5,south-southeast,3.3
2023/08/15,16:20,3.7,south,3.0
2023/08/15,16:30,3.7,south,3.7
2023/08/15,16:40,3.7,south-southwest,4.7
2023/08/15,16:50,3.7,south-southwest,3.7
2023/08/15,17:00,3.7,south-southwest,2.3
2023/08/15,17:10,3.6,south,1.7
2023/08/15,17:20,3.5,south,1.7
2023/08/15,17:30,3.5,west-southwest,2.0
2023/08/15,17:40,3.6,west,2.2
2023/08/15,17:50,3.5,south-southeast,6.1
2023/08/15,18:00,3.7,south,3.4
2023/08/15,18:10,3.6,south,4.8
2023/08/15,18:20,3.6,south,4.6
2023/08/15,18:30,3.6,south-southeast,5.3
2023/08/15,18:40,3.6,south-southeast,5.8
2023/08/15,18:50,3.7,south-southeast,6.2
2023/08/15,19:00,3.5,south-southeast,8.4
2023/08/15,19:10,3.6,south-southeast,8.2
2023/08/15,19:20,3.9,south,7.8
2023/08/15,19:30,3.6,south,7.3
2023/08/15,19:40,3.5,south-southeast,7.9
2023/08/15,19:50,3.5,south,7.0
2023/08/15,20:00,3.6,south-southeast,7.9
2023/08/15,20:10,3.6,south-southeast,6.7
2023/08/15,20:20,3.7,south-southeast,5.4
2023/08/15,20:30,3.6,south-southeast,5.4
2023/08/15,20:40,3.6,south-southeast,8.1
2023/08/15,20:50,3.7,south-southeast,8.3
2023/08/15,21:00,3.7,south,8.5
2023/08/15,21:10,3.7,south-southeast,7.5
2023/08/15,21:20,3.5,south,7.7
2023/08/15,21:30,3.6,south,6.5
2023/08/15,21:40,3.7,south,7.3
2023/08/15,21:50,3.6,south,6.8
2023/08/15,22:00,3.6,south,7.6
2023/08/15,22:10,3.4,south,8.1
2023/08/15,22:20,3.7,south,7.8
2023/08/15,22:30,3.6,south,7.1
2023/08/15,22:40,3.6,south,7.2
2023/08/15,22:50,3.7,south,6.6
2023/08/15,23:00,3.6,south,7.5
2023/08/15,23:10,3.7,south,7.6
2023/08/15,23:20,3.6,south,8.2
2023/08/15,23:30,3.6,south,9.6
2023/08/15,23:40,3.4,south,9.5
2023/08/15,23:50,3.6,south,9.2
